Regional Weather Roundup
Issued by NWS

Home | Current Version | Previous Version | Text Only | Print | Product List | Glossary On
Versions: 1 2 3 4 5 6 7 8 9 10 11 12 13 14 15 16 17 18 19 20 21 22 23 24 25 26 27 28 29 30 31 32 33 34 35 36 37 38 39 40 41 42 43 44 45 46 47 48 49 50
000
ASUS45 KBOI 010210
RWRID

IDAHO REGIONAL WEATHER ROUNDUP
NATIONAL WEATHER SERVICE BOISE ID
800 PM MDT TUE JUN 30 2015

NOTE: "FAIR" INDICATES FEW OR NO CLOUDS BELOW 12000 FEET
WITH NO SIGNIFICANT WEATHER AND/OR OBSTRUCTIONS TO VISIBILITY

IDZ012-014-010300-
SOUTHWEST IDAHO


CITY           SKY/WX    TMP DP  RH WIND       PRES   REMARKS
BOISE          MOSUNNY   98  42  14 N9        29.88S HX  94
CALDWELL       MOSUNNY  100  52  19 NW5       29.86S HX  98
MOUNTAIN HOME  MOSUNNY   99  43  14 NW13      29.89R HX  94
$$

IDZ016-017-010300-
SOUTHCENTRAL IDAHO


CITY           SKY/WX    TMP DP  RH WIND       PRES   REMARKS
BURLEY         CLOUDY    86  64  47 SW9       29.98R
JEROME         MOSUNNY   93  51  23 W10       29.98R HX  90
TWIN FALLS     PTSUNNY   95  50  21 W10       29.97R HX  92
$$

IDZ019>023-010300-
SOUTHEAST IDAHO


CITY           SKY/WX    TMP DP  RH WIND       PRES   REMARKS
IDAHO FALLS    PTSUNNY   74  66  76 CALM      30.05R
POCATELLO      SUNNY     86  53  32 NE10      30.02R
REXBURG        MOSUNNY   80  57  45 S7        30.06S
$$

IDZ006-010-011-018-031-032-010300-
CENTRAL IDAHO MOUNTAINS


CITY           SKY/WX    TMP DP  RH WIND       PRES   REMARKS
MCCALL         SUNNY     85  48  27 NW12      30.08R
HAILEY         MOSUNNY   88  48  25 SW7       30.07R
STANLEY          N/A     84  40  21 NW6       30.19R
SALMON         SUNNY     88  52  29 N14       29.93R
CHALLIS        SUNNY     89  40  17 NW10      30.02R
$$

IDZ002-004-006-007-026-010300-
NORTHERN IDAHO


CITY           SKY/WX    TMP DP  RH WIND       PRES   REMARKS
LEWISTON       SUNNY     97  46  17 NW13      29.87F HX  93
LOWELL           N/A     85  59  41 CALM      29.88S
COEUR D`ALENE  SUNNY     90  48  24 NW7       29.93F
MULLAN PASS    SUNNY     72  45  37 NW5       30.21S
$$


USA.gov is the U.S. government's official web portal to all federal, state and local government web resources and services.